Flag for Germany Weather past 2 weeks in Wittlich, Rhineland-Palatinate, Germany

Now
57 °F

Partly sunny.


Feels Like: 57 °F
Forecast: 47 / 72 °F
Wind: 3 mph from Northwest

Location: Spangdahlem

Current Time: Jul 30, 2015 at 7:02:39 PM

Latest Report: Jul 30, 2015 at 5:58 PM


Visibility: N/A

Pressure: 30.02 "Hg

Humidity: 81%

Dew point: 51 °F

Location of WittlichLocation

Historic Weather in Wittlich — Graph

°F

Wittlich temperature yesterday

Maximum temperature yesterday: 66 °F (at 1:58 PM)
Minimum temperature yesterday: 51 °F (at 5:58 AM)
Average temperature yesterday: 58 °F

Past Weeks' High & Low Weather Summary

 TemperatureHumidityPressure
High91 °F (Jul 17, 3:58 PM)100% (Jul 19, 7:58 AM)30.09 "Hg (Jul 19, 7:58 AM)
Low46 °F (Jul 30, 5:58 AM)24% (Jul 17, 2:58 PM)29.57 "Hg (Jul 25, 6:58 AM)
Average67 °F69%29.87 "Hg
* Reported Jul 15 5:58 PM — Jul 30 5:58 PM, Wittlich, Weather by CustomWeather, © 2015

Note: Actual official high and low records may vary slightly from our data, if they occured in-between our weather recording intervals... More about our weather records

Advertising

Wittlich weather history for previous 24 hours

 ConditionsComfort  
Time TempWeatherWind HumidityBarometerVisibility
5:58 PM
Thu, Jul 30
57 °FPartly sunny.3 mph81%30.02 "HgN/A
5:02 PM55 °FDrizzle. Broken clouds.7 mph82%30.04 "HgN/A
3:58 PM63 °FMore clouds than sun.12 mph51%29.99 "HgN/A
3:00 PM64 °FPartly sunny.14 mph43%30.01 "HgN/A
2:58 PM64 °FPartly sunny.12 mph42%29.97 "HgN/A
1:58 PM63 °FPassing clouds.7 mph49%29.97 "HgN/A
12:58 PM65 °FSunny.8 mph45%29.96 "HgN/A
11:58 AM63 °FPassing clouds.8 mph52%29.97 "HgN/A
10:58 AM59 °FScattered clouds.9 mph64%29.97 "HgN/A
9:58 AM56 °FSunny.7 mph74%29.97 "HgN/A
8:58 AM53 °FSunny.6 mph79%29.96 "HgN/A
7:58 AM49 °FSunny.1 mph82%29.95 "HgN/A
6:58 AM46 °FClear.5 mph87%29.96 "HgN/A
5:58 AM46 °FClear.2 mph86%29.94 "HgN/A
4:58 AM47 °FClear.No wind84%29.94 "HgN/A
3:58 AM46 °FClear.2 mph87%29.94 "HgN/A
2:58 AM48 °FClear.2 mph82%29.94 "HgN/A
1:58 AM50 °FClear.No wind76%29.93 "HgN/A
12:58 AM52 °FClear.2 mph72%29.92 "HgN/A
11:58 PM
Wed, Jul 29
53 °FClear.2 mph68%29.93 "HgN/A
10:58 PM54 °FClear.2 mph66%29.91 "HgN/A
9:58 PM57 °FSunny.5 mph59%29.90 "HgN/A
8:58 PM61 °FPassing clouds.7 mph52%29.88 "HgN/A
7:58 PM62 °FScattered clouds.10 mph48%29.86 "HgN/A
Weather by CustomWeather, © 2015

See weather overviewHow to use our weather pages